Regional Weather Roundup
Issued by NWS New Orleans/Baton Rouge, LA

Home | Current Version | Previous Version | Text Only | Print | Product List | Glossary On
Versions: 1 2 3 4 5 6 7 8 9 10 11 12 13 14 15 16 17 18 19 20 21 22 23 24 25 26 27 28 29 30 31 32 33 34 35 36 37 38 39 40 41 42 43 44 45 46 47 48 49 50
000
ASUS44 KLIX 272313
RWRLIX
NEW ORLEANS REGIONAL WEATHER ROUNDUP
NATIONAL WEATHER SERVICE NEW ORLEANS LA
600 PM CDT MON MAR 27 2017

NOTE: "FAIR" INDICATES FEW OR NO CLOUDS BELOW 12,000 FEET WITH NO
      SIGNIFICANT WEATHER AND/OR OBSTRUCTIONS TO VISIBILITY.
      SKY/WX - SKY CONDITION AND SIGNIFICANT WEATHER.
      TMP - AIR TEMPERATURE.     DP    - DEWPOINT TEMPERATURE.
      RH  - RELATIVE HUMIDITY.   PRES  - PRESSURE.
      HI  - HEAT INDEX.          WCI   - WIND CHILL INDEX.

*  THESE STATIONS ARE NOT NWS OR FAA STATIONS AND ARE NOT UNDER
   NWS QUALITY CONTROL.

LAZ038-040-048-061>063-065>067-069-280000-
SOUTHEAST LOUISIANA

CITY           SKY/WX    TMP DP  RH WIND       PRES   REMARKS
N.O. INTL ARPT MOSUNNY   78  65  63 S15       29.92F
N.O. LAKEFRONT SUNNY     79  66  64 S18       29.93F
N.O. DOWNTOWN*   N/A     79  67  66 S10G18    29.94S
RESERVE*         N/A     80  65  61 S14G22    29.92S
SLIDELL        CLOUDY    79  67  66 S12G22    29.92F
BATON ROUGE    MOSUNNY   81  63  54 S14       29.90F
BOOTHVILLE     PTSUNNY   75  71  87 S9        29.97F
BELLE CHASSE   MOSUNNY   82  69  64 S14       29.94S
BOGALUSA*      NOT AVBL
GALLIANO*      CLOUDY    79  67  68 S12       29.94F
NEW ROADS*       N/A     78  64  60 S13       29.90S
GONZALES*      MOCLDY    78  64  61 S12G18    29.91S
HAMMOND*       SUNNY     79  59  50 S14       29.91S
HOUMA*         PTSUNNY   75  70  83 S10       29.94
PORT FOURCHON* PTCLDY    75  72  88 S10G17    29.95S

$$

MSZ070-080>082-280000-
SOUTHERN MISSISSIPPI

CITY           SKY/WX    TMP DP  RH WIND       PRES   REMARKS
MCCOMB         MOSUNNY   80  60  50 SW8G20    29.89R
GULFPORT       PTSUNNY   75  70  84 S13G24    29.94F
BILOXI         MOSUNNY   74  69  85 S14       29.95S
PASCAGOULA     PTSUNNY   74  65  73 S10       29.96F
STENNIS ARPT*  PTSUNNY   75  66  73 S12G20    29.94F

$$

COASTAL OBSERVATIONS
LAKE AND NEARSHORE STATIONS

STATION/POSITION TIME  TEMP    WIND        PRES    WAVE
                       AIR SEA DIR/SP/G            HT/PER
                 (UTC) (F)     (DEG/KT/KT) (MB)    (FT/S)
PASCAGOULA       2248   74     160/ 12/ 14 1014.4
WAVELAND YACHT   2248   74 76  180/ 14/ 18 1013.5
GRAND ISLE       2248   74 75  170/  4/  7 1014.1
SOUTHWEST PASS   2248          170/  9/ 12   N/A
NEW CANAL        2248   78 73  200/ 10/ 17 1013.2
SHELL BEACH      2248   76 76  180/ 17/ 22 1013.9

OFFSHORE STATIONS

STATION/POSITION TIME  TEMP    WIND        PRES    WAVE
                       AIR SEA DIR/SP/G            HT/PER
                 (UTC) (F)     (DEG/KT/KT) (MB)    (FT/S)
64 S DAUPHIN ISL 2250   73 74  160/ 12/ 14 1015.1    3/ 5

$$




USA.gov is the U.S. government's official web portal to all federal, state and local government web resources and services.